| time (UTC) | temp F | wind direction | speed MPH | gust MPH | rain 1hr in | rain 24hr in | rain mn in | humidity % | barometer mb |
| 20260506170333 | 68 | 345 | 4.0 | 10.0 | 0.00 | 0.00 | 0.00 | 35 | 1025.1 |
| 20260506165320 | 66 | 255 | 5.0 | 9.0 | 0.00 | 0.00 | 0.00 | 36 | 1025.1 |
| 20260506164324 | 65 | 239 | 3.0 | 8.0 | 0.00 | 0.00 | 0.00 | 37 | 1025.1 |
| 20260506163338 | 66 | 85 | 5.0 | 10.0 | 0.00 | 0.00 | 0.00 | 37 | 1025.2 |
| 20260506162341 | 66 | 46 | 2.0 | 7.0 | 0.00 | 0.00 | 0.00 | 36 | 1024.9 |
| 20260506161324 | 67 | 38 | 2.0 | 6.0 | 0.00 | 0.00 | 0.00 | 36 | 1024.9 |
| 20260506160350 | 65 | 13 | 2.0 | 6.0 | 0.00 | 0.00 | 0.00 | 39 | 1024.9 |
| 20260506155343 | 65 | 327 | 4.0 | 8.0 | 0.00 | 0.00 | 0.00 | 39 | 1024.9 |
| 20260506154350 | 64 | 194 | 0.0 | 4.0 | 0.00 | 0.00 | 0.00 | 44 | 1024.8 |
| 20260506153323 | 62 | 259 | 5.0 | 8.0 | 0.00 | 0.00 | 0.00 | 46 | 1024.8 |
| 20260506152331 | 61 | 271 | 1.0 | 10.0 | 0.00 | 0.00 | 0.00 | 48 | 1024.7 |
| 20260506151337 | 61 | 248 | 2.0 | 7.0 | 0.00 | 0.00 | 0.00 | 48 | 1024.9 |
| 20260506150324 | 60 | 240 | 2.0 | 7.0 | 0.00 | 0.00 | 0.00 | 51 | 1024.9 |
| 20260506145329 | 60 | 238 | 3.0 | 5.0 | 0.00 | 0.00 | 0.00 | 51 | 1024.8 |
| 20260506144335 | 60 | 242 | 1.0 | 2.0 | 0.00 | 0.00 | 0.00 | 52 | 1024.8 |
| 20260506143326 | 59 | 242 | 0.0 | 2.0 | 0.00 | 0.00 | 0.00 | 55 | 1024.9 |
| 20260506142356 | 58 | 242 | 2.0 | 4.0 | 0.00 | 0.00 | 0.00 | 57 | 1025.0 |
| 20260506141320 | 57 | 199 | 3.0 | 5.0 | 0.00 | 0.00 | 0.00 | 60 | 1024.9 |
| 20260506140326 | 58 | 223 | 2.0 | 4.0 | 0.00 | 0.00 | 0.00 | 60 | 1024.8 |
| 20260506135330 | 58 | 180 | 0.0 | 1.0 | 0.00 | 0.00 | 0.00 | 56 | 1024.8 |
| 20260506134336 | 58 | 180 | 0.0 | 3.0 | 0.00 | 0.00 | 0.00 | 58 | 1024.7 |
| 20260506133325 | 57 | 181 | 1.0 | 2.0 | 0.00 | 0.00 | 0.00 | 57 | 1024.6 |
| 20260506132329 | 56 | 182 | 0.0 | 1.0 | 0.00 | 0.00 | 0.00 | 58 | 1024.6 |
| 20260506131333 | 56 | 182 | 0.0 | 0.0 | 0.00 | 0.00 | 0.00 | 60 | 1024.5 |
| 20260506130336 | 54 | 182 | 0.0 | 1.0 | 0.00 | 0.00 | 0.00 | 62 | 1024.4 |
| 20260506125319 | 54 | 181 | 0.0 | 2.0 | 0.00 | 0.02 | 0.00 | 63 | 1024.4 |
| 20260506124346 | 54 | 181 | 1.0 | 3.0 | 0.00 | 0.02 | 0.00 | 64 | 1024.4 |
| 20260506123319 | 53 | 181 | 2.0 | 3.0 | 0.00 | 0.02 | 0.00 | 65 | 1024.3 |
| 20260506122328 | 54 | 181 | 2.0 | 4.0 | 0.00 | 0.02 | 0.00 | 64 | 1024.1 |
| 20260506121338 | 54 | 181 | 0.0 | 3.0 | 0.00 | 0.02 | 0.00 | 63 | 1024.0 |
| 20260506120346 | 54 | 181 | 2.0 | 4.0 | 0.00 | 0.02 | 0.00 | 62 | 1023.8 |
| 20260506115328 | 54 | 181 | 3.0 | 4.0 | 0.00 | 0.05 | 0.00 | 61 | 1023.7 |
| 20260506114334 | 55 | 181 | 3.0 | 6.0 | 0.00 | 0.05 | 0.00 | 57 | 1023.6 |
| 20260506113353 | 56 | 191 | 5.0 | 6.0 | 0.00 | 0.05 | 0.00 | 57 | 1023.6 |
| 20260506112320 | 56 | 193 | 5.0 | 7.0 | 0.00 | 0.05 | 0.00 | 58 | 1023.6 |
| 20260506111328 | 56 | 199 | 6.0 | 7.0 | 0.00 | 0.05 | 0.00 | 57 | 1023.5 |
| 20260506110403 | 55 | 167 | 6.0 | 8.0 | 0.00 | 0.05 | 0.00 | 61 | 1023.4 |
| 20260506105323 | 55 | 208 | 3.0 | 6.0 | 0.00 | 0.07 | 0.00 | 62 | 1023.5 |
| 20260506104329 | 55 | 217 | 4.0 | 8.0 | 0.00 | 0.07 | 0.00 | 63 | 1023.5 |
| 20260506103326 | 55 | 211 | 6.0 | 7.0 | 0.00 | 0.07 | 0.00 | 64 | 1023.4 |
| 20260506102333 | 56 | 244 | 3.0 | 5.0 | 0.00 | 0.07 | 0.00 | 62 | 1023.2 |
| 20260506101338 | 55 | 181 | 3.0 | 3.0 | 0.00 | 0.07 | 0.00 | 63 | 1023.1 |
| 20260506100324 | 56 | 181 | 3.0 | 5.0 | 0.00 | 0.07 | 0.00 | 59 | 1023.1 |
| 20260506095334 | 56 | 170 | 4.0 | 7.0 | 0.00 | 0.10 | 0.00 | 59 | 1023.0 |
| 20260506094338 | 56 | 190 | 4.0 | 6.0 | 0.00 | 0.10 | 0.00 | 59 | 1022.8 |
| 20260506093326 | 57 | 203 | 4.0 | 6.0 | 0.00 | 0.10 | 0.00 | 59 | 1022.9 |
| 20260506092331 | 56 | 186 | 3.0 | 7.0 | 0.00 | 0.10 | 0.00 | 60 | 1022.9 |
| 20260506091334 | 57 | 187 | 5.0 | 7.0 | 0.00 | 0.10 | 0.00 | 60 | 1022.9 |
| 20260506090322 | 57 | 195 | 4.0 | 8.0 | 0.00 | 0.10 | 0.00 | 60 | 1023.0 |
| 20260506085357 | 57 | 189 | 4.0 | 6.0 | 0.00 | 0.16 | 0.00 | 60 | 1023.0 |
| 20260506084343 | 57 | 190 | 5.0 | 8.0 | 0.00 | 0.16 | 0.00 | 61 | 1023.1 |
| 20260506083342 | 57 | 200 | 5.0 | 7.0 | 0.00 | 0.16 | 0.00 | 62 | 1023.1 |
| 20260506082355 | 58 | 205 | 5.0 | 7.0 | 0.00 | 0.16 | 0.00 | 62 | 1023.2 |
| 20260506081320 | 58 | 205 | 5.0 | 6.0 | 0.00 | 0.16 | 0.00 | 62 | 1023.2 |
| 20260506080359 | 58 | 183 | 3.0 | 4.0 | 0.00 | 0.16 | 0.00 | 62 | 1023.4 |
| 20260506073337 | 59 | 195 | 3.0 | 5.0 | 0.00 | 0.22 | 0.00 | 60 | 1023.3 |
| 20260506072321 | 58 | 179 | 3.0 | 5.0 | 0.00 | 0.22 | 0.00 | 61 | 1023.3 |
| 20260506071324 | 59 | 229 | 2.0 | 4.0 | 0.00 | 0.22 | 0.00 | 60 | 1023.3 |
| 20260506070358 | 59 | 229 | 3.0 | 4.0 | 0.00 | 0.22 | 0.00 | 60 | 1023.1 |
| 20260506062325 | 60 | 218 | 3.0 | 7.0 | 0.00 | 0.26 | 0.22 | 57 | 1022.8 |
| 20260506061333 | 60 | 234 | 4.0 | 7.0 | 0.00 | 0.26 | 0.22 | 57 | 1023.0 |
| 20260506060319 | 60 | 247 | 4.0 | 8.0 | 0.00 | 0.26 | 0.22 | 57 | 1022.8 |
| 20260506051345 | 62 | 255 | 3.0 | 6.0 | 0.00 | 0.26 | 0.22 | 53 | 1022.8 |
| 20260506050335 | 62 | 255 | 4.0 | 8.0 | 0.00 | 0.26 | 0.22 | 52 | 1022.7 |
| 20260506044327 | 62 | 286 | 3.0 | 9.0 | 0.00 | 0.27 | 0.22 | 51 | 1022.4 |
| 20260506043321 | 62 | 267 | 5.0 | 9.0 | 0.00 | 0.27 | 0.22 | 50 | 1022.2 |
| 20260506042333 | 63 | 241 | 7.0 | 11.0 | 0.00 | 0.27 | 0.22 | 49 | 1022.0 |
| 20260506041321 | 63 | 266 | 9.0 | 12.0 | 0.00 | 0.27 | 0.22 | 46 | 1021.8 |
| 20260506040355 | 63 | 252 | 5.0 | 9.0 | 0.00 | 0.27 | 0.22 | 40 | 1021.6 |
| 20260506035322 | 64 | 248 | 3.0 | 7.0 | 0.00 | 0.28 | 0.22 | 37 | 1021.5 |
| 20260506034330 | 64 | 267 | 6.0 | 9.0 | 0.00 | 0.28 | 0.22 | 36 | 1021.3 |
| 20260506033320 | 65 | 281 | 6.0 | 11.0 | 0.00 | 0.28 | 0.22 | 34 | 1021.2 |
| 20260506032333 | 65 | 253 | 7.0 | 12.0 | 0.00 | 0.28 | 0.22 | 34 | 1021.0 |
| 20260506031328 | 65 | 271 | 6.0 | 10.0 | 0.00 | 0.28 | 0.22 | 34 | 1021.0 |
| 20260506030341 | 66 | 270 | 7.0 | 14.0 | 0.00 | 0.28 | 0.22 | 34 | 1020.9 |
| 20260506025322 | 66 | 254 | 7.0 | 15.0 | 0.00 | 0.30 | 0.22 | 33 | 1020.7 |
| 20260506024345 | 66 | 305 | 8.0 | 14.0 | 0.00 | 0.30 | 0.22 | 33 | 1020.6 |
| 20260506023337 | 66 | 306 | 7.0 | 15.0 | 0.00 | 0.30 | 0.22 | 34 | 1020.4 |
| 20260506022327 | 66 | 285 | 9.0 | 14.0 | 0.00 | 0.30 | 0.22 | 34 | 1020.3 |
| 20260506021355 | 67 | 255 | 9.0 | 15.0 | 0.00 | 0.30 | 0.22 | 34 | 1019.9 |
| 20260506020342 | 67 | 264 | 9.0 | 17.0 | 0.00 | 0.30 | 0.22 | 33 | 1019.8 |
| 20260506015335 | 68 | 265 | 12.0 | 20.0 | 0.00 | 0.31 | 0.22 | 31 | 1019.5 |
| 20260506014325 | 70 | 280 | 10.0 | 20.0 | 0.00 | 0.31 | 0.22 | 28 | 1019.5 |
| 20260506013328 | 70 | 289 | 10.0 | 19.0 | 0.00 | 0.31 | 0.22 | 28 | 1019.4 |
| 20260506012336 | 70 | 242 | 15.0 | 25.0 | 0.00 | 0.31 | 0.22 | 27 | 1019.3 |
| 20260506011326 | 71 | 265 | 9.0 | 24.0 | 0.00 | 0.31 | 0.22 | 28 | 1019.2 |
| 20260506010335 | 70 | 273 | 10.0 | 22.0 | 0.00 | 0.31 | 0.22 | 28 | 1019.1 |
| 20260506005330 | 71 | 278 | 8.0 | 23.0 | 0.00 | 0.32 | 0.22 | 28 | 1019.0 |
| 20260506004357 | 71 | 243 | 9.0 | 21.0 | 0.00 | 0.32 | 0.22 | 28 | 1018.9 |
| 20260506003354 | 71 | 349 | 11.0 | 24.0 | 0.00 | 0.32 | 0.22 | 28 | 1018.8 |
| 20260506002321 | 70 | 228 | 12.0 | 21.0 | 0.00 | 0.32 | 0.22 | 28 | 1018.8 |
| 20260506001329 | 72 | 251 | 13.0 | 22.0 | 0.00 | 0.32 | 0.22 | 27 | 1018.8 |
| 20260506000323 | 73 | 239 | 15.0 | 21.0 | 0.00 | 0.32 | 0.22 | 25 | 1018.7 |
| 20260505235332 | 73 | 265 | 13.0 | 22.0 | 0.00 | 0.32 | 0.22 | 24 | 1018.7 |
| 20260505234325 | 72 | 230 | 12.0 | 26.0 | 0.00 | 0.32 | 0.22 | 26 | 1018.6 |
| 20260505233347 | 73 | 240 | 14.0 | 24.0 | 0.00 | 0.32 | 0.22 | 26 | 1018.6 |
| 20260505232337 | 72 | 222 | 13.0 | 22.0 | 0.00 | 0.32 | 0.22 | 25 | 1018.7 |
| 20260505231346 | 73 | 273 | 16.0 | 24.0 | 0.00 | 0.32 | 0.22 | 24 | 1018.7 |
| 20260505230356 | 73 | 233 | 19.0 | 27.0 | 0.00 | 0.32 | 0.22 | 24 | 1018.7 |
| 20260505225319 | 73 | 273 | 14.0 | 33.0 | 0.00 | 0.32 | 0.22 | 24 | 1018.7 |
| 20260505224343 | 73 | 279 | 15.0 | 29.0 | 0.00 | 0.32 | 0.22 | 25 | 1018.7 |
| 20260505223331 | 73 | 279 | 15.0 | 28.0 | 0.00 | 0.32 | 0.22 | 27 | 1018.9 |
| 20260505222319 | 74 | 261 | 18.0 | 27.0 | 0.00 | 0.32 | 0.22 | 28 | 1019.0 |
| 20260505221343 | 74 | 276 | 12.0 | 28.0 | 0.00 | 0.32 | 0.22 | 29 | 1019.0 |
| 20260505220328 | 73 | 234 | 11.0 | 31.0 | 0.00 | 0.32 | 0.22 | 31 | 1019.1 |
| 20260505215331 | 74 | 263 | 18.0 | 30.0 | 0.00 | 0.32 | 0.22 | 31 | 1019.2 |
| 20260505214335 | 72 | 242 | 15.0 | 27.0 | 0.00 | 0.32 | 0.22 | 34 | 1019.2 |
| 20260505213323 | 73 | 263 | 12.0 | 21.0 | 0.00 | 0.32 | 0.22 | 34 | 1019.4 |
| 20260505212327 | 73 | 234 | 16.0 | 28.0 | 0.00 | 0.32 | 0.22 | 34 | 1019.4 |
| 20260505211336 | 72 | 232 | 20.0 | 28.0 | 0.00 | 0.32 | 0.22 | 34 | 1019.4 |
| 20260505210354 | 72 | 247 | 17.0 | 26.0 | 0.00 | 0.32 | 0.22 | 33 | 1019.4 |
| 20260505205318 | 73 | 270 | 17.0 | 25.0 | 0.00 | 0.32 | 0.22 | 36 | 1019.5 |
| 20260505204322 | 73 | 252 | 16.0 | 25.0 | 0.00 | 0.32 | 0.22 | 36 | 1019.7 |
| 20260505203342 | 71 | 269 | 10.0 | 23.0 | 0.00 | 0.32 | 0.22 | 39 | 1019.8 |
| 20260505202325 | 74 | 250 | 17.0 | 26.0 | 0.00 | 0.32 | 0.22 | 37 | 1019.8 |
| 20260505201352 | 73 | 279 | 16.0 | 26.0 | 0.00 | 0.32 | 0.22 | 37 | 1019.8 |
| 20260505200320 | 73 | 245 | 13.0 | 24.0 | 0.00 | 0.32 | 0.22 | 43 | 1020.0 |
| 20260505195354 | 73 | 256 | 8.0 | 16.0 | 0.00 | 0.32 | 0.22 | 46 | 1020.1 |
| 20260505194342 | 72 | 231 | 7.0 | 16.0 | 0.00 | 0.32 | 0.22 | 49 | 1020.1 |
| 20260505193338 | 71 | 292 | 8.0 | 16.0 | 0.00 | 0.32 | 0.22 | 52 | 1020.3 |
| 20260505192329 | 72 | 220 | 6.0 | 10.0 | 0.00 | 0.32 | 0.22 | 52 | 1020.1 |
| 20260505191338 | 72 | 333 | 3.0 | 12.0 | 0.00 | 0.32 | 0.22 | 53 | 1020.3 |
| 20260505190328 | 72 | 273 | 6.0 | 12.0 | 0.00 | 0.32 | 0.22 | 52 | 1020.5 |
| 20260505185335 | 71 | 261 | 4.0 | 13.0 | 0.00 | 0.32 | 0.22 | 54 | 1020.8 |
| 20260505184320 | 71 | 279 | 4.0 | 11.0 | 0.00 | 0.32 | 0.22 | 55 | 1020.9 |
| 20260505183357 | 71 | 262 | 5.0 | 10.0 | 0.00 | 0.32 | 0.22 | 56 | 1020.9 |
| 20260505182328 | 71 | 248 | 6.0 | 16.0 | 0.00 | 0.32 | 0.22 | 57 | 1021.1 |
| 20260505181334 | 71 | 249 | 8.0 | 12.0 | 0.00 | 0.32 | 0.22 | 54 | 1021.1 |
| 20260505180319 | 70 | 257 | 5.0 | 12.0 | 0.00 | 0.32 | 0.22 | 58 | 1021.3 |
| 20260505175327 | 70 | 274 | 4.0 | 10.0 | 0.00 | 0.32 | 0.22 | 58 | 1021.4 |
| 20260505174335 | 69 | 104 | 1.0 | 9.0 | 0.00 | 0.32 | 0.22 | 59 | 1021.4 |
| 20260505173356 | 68 | 251 | 6.0 | 13.0 | 0.00 | 0.32 | 0.22 | 62 | 1021.5 |
| 20260505172324 | 68 | 336 | 4.0 | 8.0 | 0.00 | 0.32 | 0.22 | 62 | 1021.5 |
| 20260505171333 | 68 | 267 | 2.0 | 7.0 | 0.00 | 0.32 | 0.22 | 62 | 1021.5 |